Location: Newark
(45.8667°N, 9.7333°E)
Time: 11:53:48
(UTC+00:00)

Vanguard 3 - Pass Details

Date: 30 January 2020
Orbit: 508 x 3263 km, 33.3° (Epoch: 19 February)

Event Time Altitude Azimuth Distance (km) Brightness Sun altitude
Rises 16:13:42 0° 242° (WSW) 6,596 16.5 0.6°
Reaches altitude 10° 16:17:54 10° 238° (WSW) 5,818 13.7 0.0°
Maximum altitude 16:36:03 53° 169° (S) 3,738 10.6 -2.9°
Drops below altitude 10° 16:53:08 10° 100° (E) 5,518 10.9 -5.7°
Enters shadow 16:56:43 - 96° (E) 6,200 11.1 -6.3°
Sets 16:56:58 0° 96° (E) 6,252 - -6.3°
